Olathe, KS

6:20 AM CDT on April 27, 2017 (GMT -0500)
Johnson County Executive

Weather History for KOJC - August, 2013

Change the Weather History Date:

Saturday, August 17, 2013

  Actual Average Record
Temperature  
Mean Temperature 68 °F 78 °F  
Max Temperature 78 °F 88 °F 103 °F (1983)
Min Temperature 57 °F 68 °F 51 °F (1943)
Degree Days  
Heating Degree Days 0 0  
Month to date heating degree days 0 0  
Since 1 June heating degree days 14 8  
Since 1 July heating degree days 0 0  
Cooling Degree Days 3 13  
Month to date cooling degree days 142 234  
Year to date cooling degree days 912 1006  
Since 1 June cooling degree days 811 902  
Growing Degree Days 17 (Base 50)    
Moisture  
Dew Point 54 °F    
Average Humidity 67    
Maximum Humidity 93    
Minimum Humidity 40    
Precipitation  
Precipitation 0.00 in 0.16 in 2.00 in (1966)
Month to date precipitation 2.67 1.64  
Year to date precipitation 26.50 25.88  
Sea Level Pressure  
Sea Level Pressure 30.14 in    
Wind  
Wind Speed 5 mph (East)    
Max Wind Speed 13 mph    
Max Gust Speed 20 mph    
Visibility 10 miles    
Events      
T = Trace of Precipitation, MM = Missing Value Source: NWS Daily Summary

Daily Weather History Graph

Daily Weather History Graph

Search for Another Location

Airport or City:

Trip Planner

Search our weather history database for the weather conditions in past years. The results will help you decide how hot, cold, wet, or windy it might be!

Date:

Astronomy

Aug. 17, 2013 Rise Set
Actual Time 6:34 AM CDT 8:10 PM CDT
Civil Twilight 6:06 AM CDT 8:38 PM CDT
Nautical Twilight 5:32 AM CDT 9:12 PM CDT
Astronomical Twilight 4:56 AM CDT 9:48 PM CDT
Moon 5:25 PM CDT (8/17) 2:39 AM CDT (8/17)
Length of Visible Light 14h 32m
Length of Day
13h 35m
Waxing Gibbous, 84% of the Moon is Illuminated
Aug 17
Waxing Gibbous
Aug 20
Full
Aug 28
Last Quarter
Sep 5
New
Sep 12
First Quarter

Hourly Weather History & Observations

Time (CDT) Temp. Dew Point Humidity Pressure Visibility Wind Dir Wind Speed Gust Speed Precip Events Conditions
12:53 AM 64.0 °F 55.0 °F 73% 30.15 in 10.0 mi Calm Calm - N/A   Clear
1:53 AM 62.1 °F 55.0 °F 78% 30.15 in 10.0 mi Calm Calm - N/A   Clear
2:53 AM 59.0 °F 53.1 °F 81% 30.15 in 10.0 mi East 3.5 mph - N/A   Clear
3:53 AM 60.1 °F 53.1 °F 78% 30.15 in 10.0 mi East 4.6 mph - N/A   Clear
4:53 AM 59.0 °F 53.1 °F 81% 30.16 in 10.0 mi Calm Calm - N/A   Clear
5:53 AM 57.0 °F 53.1 °F 87% 30.16 in 10.0 mi Calm Calm - N/A   Clear
6:53 AM 57.9 °F 55.0 °F 90% 30.17 in 10.0 mi NNE 3.5 mph - N/A   Clear
7:53 AM 62.1 °F 55.9 °F 80% 30.18 in 10.0 mi ENE 4.6 mph - N/A   Clear
8:53 AM 66.0 °F 57.0 °F 73% 30.18 in 10.0 mi East 4.6 mph - N/A   Clear
9:53 AM 70.0 °F 54.0 °F 57% 30.18 in 10.0 mi East 6.9 mph - N/A   Clear
10:53 AM 72.0 °F 55.0 °F 55% 30.18 in 10.0 mi East 9.2 mph - N/A   Clear
11:53 AM 73.0 °F 55.0 °F 53% 30.18 in 10.0 mi East 11.5 mph - N/A   Scattered Clouds
12:53 PM 75.9 °F 54.0 °F 46% 30.16 in 10.0 mi East 6.9 mph - N/A   Scattered Clouds
1:53 PM 75.9 °F 53.1 °F 45% 30.15 in 10.0 mi ESE 10.4 mph 16.1 mph N/A   Scattered Clouds
2:53 PM 73.9 °F 53.1 °F 48% 30.14 in 10.0 mi ESE 5.8 mph - N/A   Mostly Cloudy
3:53 PM 77.0 °F 53.1 °F 43% 30.12 in 10.0 mi East 5.8 mph - N/A   Scattered Clouds
4:53 PM 77.0 °F 51.1 °F 40% 30.11 in 10.0 mi ENE 3.5 mph - N/A   Partly Cloudy
5:53 PM 75.9 °F 51.1 °F 42% 30.10 in 10.0 mi ENE 4.6 mph - N/A   Partly Cloudy
6:53 PM 75.0 °F 53.1 °F 46% 30.09 in 10.0 mi East 8.1 mph - N/A   Clear
7:53 PM 72.0 °F 53.1 °F 51% 30.09 in 10.0 mi East 4.6 mph - N/A   Clear
8:53 PM 70.0 °F 54.0 °F 57% 30.10 in 10.0 mi East 3.5 mph - N/A   Clear
9:53 PM 68.0 °F 54.0 °F 61% 30.11 in 10.0 mi ESE 3.5 mph - N/A   Clear
10:53 PM 64.9 °F 54.0 °F 68% 30.12 in 10.0 mi SE 3.5 mph - N/A   Clear
11:53 PM 64.0 °F 55.0 °F 73% 30.12 in 10.0 mi Calm Calm - N/A   Clear